Montague, CA

5:57 AM PDT on May 26, 2018 (GMT -0700)
Siskiyou County

Weather History for KSIY - January, 2013

Change the Weather History Date:

Sunday, January 13, 2013

  Actual Average Record
Temperature  
Mean Temperature 19 °F 35 °F  
Max Temperature 27 °F 44 °F 61 °F (1986)
Min Temperature 11 °F 26 °F 7 °F (1993)
Degree Days  
Heating Degree Days 46 30  
Month to date heating degree days 466 390  
Since 1 July heating degree days 2389 2623  
Cooling Degree Days 0 0  
Month to date cooling degree days 0 0  
Year to date cooling degree days 0 0  
Moisture  
Dew Point 12 °F    
Average Humidity 80    
Maximum Humidity 88    
Minimum Humidity 68    
Precipitation  
Precipitation 0.00 in 0.06 in 1.21 in (1980)
Month to date precipitation 0.36 1.35  
Year to date precipitation 0.36 1.35  
Sea Level Pressure  
Sea Level Pressure 30.43 in    
Wind  
Wind Speed 2 mph (NE)    
Max Wind Speed 7 mph    
Max Gust Speed 9 mph    
Visibility 10 miles    
Events      
T = Trace of Precipitation, MM = Missing Value Source: NWS Daily Summary

Daily Weather History Graph

Daily Weather History Graph

Search for Another Location

Airport or City:

Astronomy

Jan. 13, 2013 Rise Set
Actual Time 7:35 AM PST 5:02 PM PST
Civil Twilight 7:04 AM PST 5:33 PM PST
Nautical Twilight 6:30 AM PST 6:07 PM PST
Astronomical Twilight 5:56 AM PST 6:41 PM PST
Moon 8:34 AM PST (1/13) 7:50 PM PST (1/13)
Length of Visible Light 10h 28m
Length of Day
9h 26m
Waxing Crescent, 6% of the Moon is Illuminated
Jan 13
Waxing Crescent
Jan 18
First Quarter
Jan 26
Full
Feb 3
Last Quarter
Feb 9
New

Hourly Weather History & Observations

Time (PST) Temp. Windchill Dew Point Humidity Pressure Visibility Wind Dir Wind Speed Gust Speed Precip Events Conditions
12:53 AM 14.0 °F 8.2 °F 10.9 °F 88% 30.40 in 10.0 mi NNE 3.5 mph - N/A   Clear
1:53 AM 15.1 °F - 10.9 °F 84% 30.40 in 10.0 mi Calm Calm - N/A   Clear
2:53 AM 14.0 °F - 10.0 °F 84% 30.41 in 10.0 mi Calm Calm - N/A   Clear
3:53 AM 10.9 °F 1.4 °F 7.0 °F 84% 30.41 in 10.0 mi NE 5.8 mph - N/A   Unknown
4:10 AM 12.2 °F 0.7 °F 8.6 °F 85% 30.28 in 10.0 mi NE 8.1 mph - N/A   Mostly Cloudy
4:53 AM 12.0 °F 2.7 °F 8.1 °F 84% 30.41 in 10.0 mi North 5.8 mph - N/A   Overcast
5:11 AM 12.2 °F 4.3 °F 8.6 °F 85% 30.28 in 10.0 mi NE 4.6 mph - N/A   Overcast
5:53 AM 12.9 °F 6.9 °F 8.1 °F 81% 30.42 in 10.0 mi NNE 3.5 mph - N/A   Overcast
6:53 AM 12.0 °F 1.5 °F 7.0 °F 80% 30.45 in 10.0 mi North 6.9 mph - N/A   Unknown
7:03 AM 10.4 °F 2.2 °F 6.8 °F 85% 30.32 in 10.0 mi NNE 4.6 mph - N/A   Mostly Cloudy
7:15 AM 12.2 °F 2.9 °F 6.8 °F 79% 30.32 in 10.0 mi NE 5.8 mph - N/A   Scattered Clouds
7:53 AM 10.9 °F 2.9 °F 6.1 °F 81% 30.47 in 10.0 mi NE 4.6 mph - N/A   Clear
8:53 AM 14.0 °F - 8.1 °F 77% 30.47 in 10.0 mi Calm Calm - N/A   Clear
9:53 AM 16.0 °F - 12.0 °F 84% 30.48 in 10.0 mi Calm Calm - N/A   Clear
10:53 AM 19.0 °F - 12.9 °F 77% 30.48 in 10.0 mi Calm Calm - N/A   Clear
11:53 AM 19.9 °F - 12.9 °F 74% 30.45 in 10.0 mi Calm Calm - N/A   Clear
12:53 PM 23.0 °F - 14.0 °F 68% 30.44 in 10.0 mi Calm Calm - N/A   Clear
1:53 PM 25.0 °F 18.1 °F 17.1 °F 72% 30.42 in 10.0 mi South 5.8 mph - N/A   Clear
2:53 PM 25.0 °F 19.3 °F 17.1 °F 72% 30.42 in 10.0 mi South 4.6 mph - N/A   Clear
3:53 PM 25.0 °F 20.7 °F 16.0 °F 69% 30.43 in 10.0 mi SSE 3.5 mph - N/A   Clear
4:53 PM 25.0 °F - 16.0 °F 69% 30.43 in 10.0 mi Calm Calm - N/A   Clear
5:53 PM 23.0 °F - 17.1 °F 78% 30.45 in 10.0 mi Calm Calm - N/A   Clear
6:53 PM 21.0 °F - 17.1 °F 85% 30.47 in 10.0 mi Calm Calm - N/A   Clear
7:53 PM 19.0 °F - 16.0 °F 88% 30.48 in 10.0 mi Calm Calm - N/A   Clear
8:53 PM 19.9 °F - 16.0 °F 85% 30.48 in 10.0 mi Calm Calm - N/A   Clear
9:53 PM 18.0 °F - 12.9 °F 81% 30.48 in 10.0 mi Calm Calm - N/A   Clear
10:53 PM 16.0 °F - 12.0 °F 84% 30.50 in 10.0 mi Calm Calm - N/A   Clear
11:53 PM 15.1 °F - 10.9 °F 84% 30.51 in 10.0 mi Calm Calm - N/A   Clear